Weather History for KBOS - January, 2014

Change the Weather History Date:

Tuesday, January 28, 2014

  Actual Average Record
Temperature  
Mean Temperature 17 °F 29 °F  
Max Temperature 21 °F 36 °F 63 °F (1916)
Min Temperature 13 °F 22 °F -5 °F (1935)
Degree Days  
Heating Degree Days 48 36  
Month to date heating degree days 1039 1004  
Since 1 July heating degree days 3028 2998  
Cooling Degree Days 0 0  
Month to date cooling degree days 0 0  
Year to date cooling degree days 0 0  
Moisture  
Dew Point -8 °F    
Average Humidity 35    
Maximum Humidity 45    
Minimum Humidity 24    
Precipitation  
Precipitation 0.00 in 0.10 in 1.68 in (1886)
Month to date precipitation 3.23 3.04  
Year to date precipitation 3.23 3.04  
Sea Level Pressure  
Sea Level Pressure 30.23 in    
Wind  
Wind Speed 13 mph (West)    
Max Wind Speed 25 mph    
Max Gust Speed 33 mph    
Visibility 10 miles    
Events      
T = Trace of Precipitation, MM = Missing Value Source: NWS Daily Summary

Daily Weather History Graph

Daily Weather History Graph

Search for Another Location

Airport or City:

Trip Planner

Search our weather history database for the weather conditions in past years. The results will help you decide how hot, cold, wet, or windy it might be!

Date:

Astronomy

Jan. 28, 2014 Rise Set
Actual Time 7:01 AM EST 4:52 PM EST
Civil Twilight 6:31 AM EST 5:23 PM EST
Nautical Twilight 5:57 AM EST 5:56 PM EST
Astronomical Twilight 5:24 AM EST 6:30 PM EST
Moon 4:41 AM EST (1/28) 2:38 PM EST (1/28)
Length of Visible Light 10h 51m
Length of Day
9h 51m
Waning Crescent, 7% of the Moon is Illuminated
Jan 28
Waning Crescent
Jan 30
New
Feb 6
First Quarter
Feb 14
Full
Feb 22
Last Quarter

Hourly Weather History & Observations

Time (EST) Temp. Windchill Dew Point Humidity Pressure Visibility Wind Dir Wind Speed Gust Speed Precip Events Conditions
12:54 AM 19.9 °F 8.6 °F 1.0 °F 44% 30.01 in 10.0 mi WNW 10.4 mph 21.9 mph N/A   Overcast
1:54 AM 19.0 °F 4.0 °F -2.0 °F 40% 30.04 in 10.0 mi West 17.3 mph - N/A   Overcast
2:54 AM 18.0 °F 3.6 °F -4.0 °F 38% 30.07 in 10.0 mi WNW 15.0 mph 24.2 mph N/A   Overcast
3:54 AM 16.0 °F 1.7 °F -5.1 °F 39% 30.11 in 10.0 mi West 13.8 mph 25.3 mph N/A   Scattered Clouds
4:54 AM 14.0 °F -2.5 °F -8.0 °F 37% 30.14 in 10.0 mi WNW 17.3 mph 26.5 mph N/A   Partly Cloudy
5:54 AM 12.9 °F -4.4 °F -9.0 °F 37% 30.18 in 10.0 mi West 18.4 mph 25.3 mph N/A   Scattered Clouds
6:54 AM 12.9 °F -3.9 °F -9.9 °F 35% 30.22 in 10.0 mi West 17.3 mph 23.0 mph N/A   Scattered Clouds
7:54 AM 14.0 °F -0.8 °F -11.9 °F 31% 30.25 in 10.0 mi WNW 13.8 mph 24.2 mph N/A   Mostly Cloudy
8:54 AM 15.1 °F -2.0 °F -13.0 °F 28% 30.28 in 10.0 mi West 19.6 mph 27.6 mph N/A   Mostly Cloudy
9:54 AM 16.0 °F 1.1 °F -11.9 °F 28% 30.30 in 10.0 mi West 15.0 mph - N/A   Scattered Clouds
10:54 AM 17.1 °F 0.6 °F -14.1 °F 24% 30.29 in 10.0 mi WNW 19.6 mph 25.3 mph N/A   Scattered Clouds
11:54 AM 17.1 °F 1.0 °F -13.0 °F 26% 30.28 in 10.0 mi WNW 18.4 mph 24.2 mph N/A   Mostly Cloudy
12:54 PM 18.0 °F 4.8 °F -11.9 °F 26% 30.26 in 10.0 mi NW 12.7 mph - N/A   Scattered Clouds
1:54 PM 18.0 °F 5.4 °F -11.0 °F 27% 30.25 in 10.0 mi West 11.5 mph - N/A   Mostly Cloudy
2:54 PM 19.0 °F 11.1 °F -9.9 °F 27% 30.26 in 10.0 mi West 5.8 mph - N/A   Mostly Cloudy
3:54 PM 19.0 °F 6.8 °F -9.0 °F 29% 30.28 in 10.0 mi WSW 11.5 mph - N/A   Mostly Cloudy
4:54 PM 19.0 °F 6.8 °F -9.0 °F 29% 30.30 in 10.0 mi SW 11.5 mph - N/A   Mostly Cloudy
5:54 PM 18.0 °F 4.8 °F -8.0 °F 31% 30.31 in 10.0 mi WSW 12.7 mph - N/A   Scattered Clouds
6:54 PM 18.0 °F 5.4 °F -8.0 °F 31% 30.31 in 10.0 mi WSW 11.5 mph - N/A   Mostly Cloudy
7:54 PM 18.0 °F 6.1 °F -7.1 °F 33% 30.30 in 10.0 mi SW 10.4 mph - N/A   Mostly Cloudy
8:54 PM 18.0 °F 7.7 °F -6.0 °F 35% 30.29 in 10.0 mi WSW 8.1 mph - N/A   Overcast
9:54 PM 18.0 °F 8.7 °F -6.0 °F 35% 30.27 in 10.0 mi WSW 6.9 mph - N/A   Overcast
10:54 PM 18.0 °F - -6.0 °F 35% 30.25 in 10.0 mi Calm Calm - N/A   Overcast
11:54 PM 18.0 °F 9.8 °F -6.0 °F 35% 30.23 in 10.0 mi WNW 5.8 mph - N/A   Overcast